{"data":{"norad_id":59310,"epoch":"2026-09-21T05:00:24.247872Z","epoch_age_seconds":100848,"freshness":"FRESH","line1":"1 59310U 24056Q   26264.20861398 -.00000351  00000+0 -32193-5 0  9995","line2":"2 59310  43.0025 203.3025 0000929 276.4419  83.6327 15.27578811141215","mean_motion":15.27578811,"eccentricity":9.29e-5,"inclination_deg":43.0025,"raan_deg":203.3025,"arg_perigee_deg":276.4419,"mean_anomaly_deg":83.6327,"bstar":-3.2193e-6,"rev_number":14121,"period_min":94.266822086733,"perigee_km":482.41525181663,"apogee_km":483.69006085478,"semimajor_km":6861.1896563357,"source":"CELESTRAK","updated_at":"2026-09-22T09:00:48.895949Z"}}